Location: Cluny
(50.9333°N, 112.8167°W)
Time: 16:19:14
(UTC-06:00)

Hamsat - Visible Passes

Search period start: 01 September 2015 00:00
Search period end: 11 September 2015 00:00
Orbit: 588 x 623 km, 97.6° (Epoch: 31 August)

Date Brightness Start Highest point End Pass type
(mag) Time Alt. Az. Time Alt. Az. Time Alt. Az.
03 Sep ? 05:24:54 10° ENE 05:26:10 11° E 05:27:37 10° ESE visible
04 Sep ? 05:36:44 10° NE 05:39:07 15° E 05:41:38 10° SE visible
05 Sep ? 05:48:59 10° NE 05:52:02 20° E 05:55:09 10° SE visible
06 Sep ? 06:01:25 10° NE 06:04:55 26° E 06:08:28 10° SSE visible
07 Sep ? 06:13:58 10° NNE 06:17:46 34° E 06:21:36 10° SSE visible
